Time,TemperatureF,DewpointF,PressureIn,WindDirection,WindDirectionDegrees,WindSpeedMPH,WindSpeedGustMPH,Humidity,HourlyPrecipIn,Conditions,Clouds,dailyrainin,SoftwareType,DateUTC
2013-02-10 00:59:00,33.4,32.1,30.26,SE,140,0.0,2.0,95,0.00,CLR,,0.00,WeatherDisplay:10.37,2013-02-10 05:59:00,
2013-02-10 01:59:00,33.7,32.4,30.27,North,1,0.0,0.0,95,0.00,CLR,,0.00,WeatherDisplay:10.37,2013-02-10 06:59:00,
2013-02-10 02:59:00,33.6,32.3,30.26,North,1,0.0,0.0,95,0.00,CLR,,0.00,WeatherDisplay:10.37,2013-02-10 07:59:00,
2013-02-10 03:59:00,33.6,32.4,30.27,North,1,0.0,0.0,95,0.00,CLR,,0.00,WeatherDisplay:10.37,2013-02-10 08:59:00,
2013-02-10 04:59:00,33.9,32.6,30.26,North,2,0.0,0.0,95,0.00,CLR,,0.00,WeatherDisplay:10.37,2013-02-10 09:59:00,
2013-02-10 05:59:00,34.5,33.2,30.27,North,1,0.0,0.0,95,0.00,CLR,,0.00,WeatherDisplay:10.37,2013-02-10 10:59:00,
2013-02-10 06:59:00,34.6,33.3,30.27,North,1,0.0,0.0,95,0.00,CLR,,0.00,WeatherDisplay:10.37,2013-02-10 11:59:00,
2013-02-10 07:59:00,34.4,33.1,30.25,North,1,0.0,0.0,95,0.00,CLR,,0.00,WeatherDisplay:10.37,2013-02-10 12:59:00,
2013-02-10 08:59:00,34.9,33.6,30.26,North,1,0.0,0.0,95,0.00,CLR,,0.00,WeatherDisplay:10.37,2013-02-10 13:59:00,
2013-02-10 09:59:00,37.9,36.6,30.27,North,1,0.0,0.0,95,0.00,CLR,,0.00,WeatherDisplay:10.37,2013-02-10 14:59:00,
2013-02-10 10:59:00,45.6,44.2,30.25,North,2,0.0,0.0,95,0.00,CLR,,0.00,WeatherDisplay:10.37,2013-02-10 15:59:00,
2013-02-10 11:59:00,49.5,48.1,30.22,North,1,0.0,0.0,95,0.00,CLR,,0.00,WeatherDisplay:10.37,2013-02-10 16:59:00,
2013-02-10 12:59:00,52.2,50.8,30.14,North,2,0.0,0.0,95,0.00,CLR,,0.00,WeatherDisplay:10.37,2013-02-10 17:59:00,
2013-02-10 13:59:00,53.4,52.0,30.15,North,1,0.0,0.0,95,0.00,CLR,,0.00,WeatherDisplay:10.37,2013-02-10 18:59:00,
2013-02-10 15:00:00,54.2,52.8,30.12,North,3,0.0,0.0,95,0.00,BKN,,0.00,WeatherDisplay:10.37,2013-02-10 20:00:00,
2013-02-10 15:59:00,53.6,52.2,30.11,North,1,0.0,0.0,95,0.00,-RA,,0.00,WeatherDisplay:10.37,2013-02-10 20:59:00,
2013-02-10 16:59:00,51.4,50.0,30.11,North,1,0.0,0.0,95,0.00,OVC,,0.00,WeatherDisplay:10.37,2013-02-10 21:59:00,
2013-02-10 17:59:00,48.6,47.3,30.15,North,2,0.0,0.0,95,0.00,OVC,,0.00,WeatherDisplay:10.37,2013-02-10 22:59:00,
2013-02-10 18:59:00,47.0,45.7,30.17,North,1,0.0,0.0,95,0.00,OVC,,0.00,WeatherDisplay:10.37,2013-02-10 23:59:00,
2013-02-10 20:00:00,46.3,45.0,30.21,North,3,0.0,0.0,95,0.00,-RA,,0.00,WeatherDisplay:10.37,2013-02-11 01:00:00,
2013-02-10 20:59:00,47.1,45.8,30.14,North,4,0.0,0.0,95,0.00,OVC,,0.00,WeatherDisplay:10.37,2013-02-11 01:59:00,
2013-02-10 21:59:00,47.7,46.4,30.10,North,1,0.0,0.0,95,0.00,-RA,,0.00,WeatherDisplay:10.37,2013-02-11 02:59:00,
2013-02-10 23:00:00,50.2,48.8,30.10,North,3,0.0,0.0,95,0.00,-RA,,0.00,WeatherDisplay:10.37,2013-02-11 04:00:00,
2013-02-10 23:59:00,52.0,50.6,30.08,North,1,0.0,0.0,95,0.00,OVC,,0.00,WeatherDisplay:10.37,2013-02-11 04:59:00,